Location: Schommer Observatory
(40.5200°N, 74.4500°W)
Time: 03:02:19
(UTC-04:00)

Amateur Radio Satellites - All Passes

Search period start: 21 September 2017 02:32
Search period end: 22 September 2017 02:32
Location: Schommer Observatory, 40.5200°N, 74.4500°W

Satellite Date Start Highest point End Downlink Frequencies (MHz)
Time Altitude Azimuth
UKube-1 21 Sep 02:36:17 02:40:10 33° 262° (W) 02:44:04 .
DX 1 21 Sep 02:37:15 02:40:36 22° 265° (W) 02:43:58 434.975-435.025
nSIGHT-1 21 Sep 02:39:57 02:42:02 16° 15° (NNE) 02:44:07 .
Tancredo 1 21 Sep 02:50:30 02:53:08 45° 32° (NNE) 02:55:46 437.200
Gurwin Techsat 1B 21 Sep 03:04:58 03:10:18 81° 285° (WNW) 03:15:37 435.225
ITUPSAT 1 21 Sep 03:12:00 03:16:42 63° 73° (ENE) 03:21:27 437.325
MOZHAYETS 4 21 Sep 03:12:32 03:17:04 61° 74° (ENE) 03:21:39
O/OREOS (USA 219) 21 Sep 03:18:55 03:23:24 81° 110° (ESE) 03:27:57 437.305
ISS 21 Sep 03:30:28 03:33:17 25° 24° (NNE) 03:36:05 437.550
CUBESAT XI-V 21 Sep 03:31:43 03:35:15 21° 66° (ENE) 03:38:47 437.345
RS-15 21 Sep 03:42:52 03:45:41 11° 92° (E) 03:48:29 29.354- 29.394
Oscar 19 21 Sep 03:45:59 03:50:01 23° 295° (WNW) 03:54:02 437.125/150
BEESAT 21 Sep 03:50:59 03:55:35 50° 260° (W) 04:00:14 436.000
KKS-1 21 Sep 03:57:35 03:59:54 14° 63° (ENE) 04:02:12 437.445
AO-7 21 Sep 03:57:51 04:05:39 43° 100° (E) 04:13:23 .
nSIGHT-1 21 Sep 04:15:40 04:18:53 59° 33° (NNE) 04:22:07 .
Tancredo 1 21 Sep 04:26:00 04:27:25 13° 228° (SW) 04:28:50 437.200
STARS 21 Sep 04:31:05 04:33:01 13° 62° (ENE) 04:34:57 437.465
BEESAT 3 21 Sep 04:41:32 04:44:43 22° 47° (NE) 04:47:52 437.485
ITAMSAT 1 21 Sep 04:43:05 04:48:18 85° 104° (ESE) 04:53:32 435.822/435.867
Gurwin Techsat 1B 21 Sep 04:48:04 04:49:21 11° 303° (WNW) 04:50:40 435.225
AO-85 21 Sep 04:51:55 04:54:28 15° 43° (NE) 04:57:07 145.980
MOZHAYETS 4 21 Sep 04:52:33 04:54:36 13° 270° (W) 04:56:40
ITUPSAT 1 21 Sep 04:52:43 04:54:56 13° 269° (W) 04:57:10 437.325
O/OREOS (USA 219) 21 Sep 05:01:50 05:03:26 12° 309° (NW) 05:05:03 437.305
ISS 21 Sep 05:06:43 05:09:53 46° 222° (SW) 05:13:03 437.550
CUBESAT XI-V 21 Sep 05:07:56 05:12:20 39° 262° (W) 05:16:46 437.345
KKS-1 21 Sep 05:31:37 05:35:57 57° 259° (W) 05:40:19 437.445
RS-15 21 Sep 05:43:32 05:55:23 60° 112° (ESE) 06:07:20 29.354- 29.394
AO-7 21 Sep 05:50:42 05:58:22 44° 298° (WNW) 06:06:01 .
nSIGHT-1 21 Sep 05:52:59 05:54:54 15° 230° (SW) 05:56:48 .
STARS 21 Sep 06:04:31 06:08:49 61° 259° (W) 06:13:09 437.465
DOVE 4 21 Sep 06:07:58 06:12:08 61° 101° (E) 06:16:28 437.250
CUTE-I 21 Sep 06:10:51 06:14:16 17° 92° (E) 06:17:40 437.470
BEESAT 2 21 Sep 06:18:34 06:22:38 70° 57° (ENE) 06:26:37 435.950
BEESAT 3 21 Sep 06:18:45 06:22:21 33° 245° (WSW) 06:25:52 437.485
XW-2D 21 Sep 06:23:00 06:26:05 23° 95° (E) 06:29:09 145.860 - 145.880
ITAMSAT 1 21 Sep 06:24:47 06:27:02 13° 301° (WNW) 06:29:16 435.822/435.867
AO-85 21 Sep 06:30:52 06:35:20 79° 239° (WSW) 06:40:09 145.980
HO-68 21 Sep 06:32:09 06:34:17 11° 87° (E) 06:36:24 435.675
XW-2B 21 Sep 06:34:59 06:38:24 31° 97° (E) 06:41:48 145.730 - 145.750
XW-2F 21 Sep 06:37:25 06:40:50 31° 97° (E) 06:44:13 145.980 - 146.000
XW-2C 21 Sep 06:55:53 06:59:40 59° 100° (E) 07:03:25 145.795 - 145.815
STRAND 1 21 Sep 07:02:53 07:07:40 43° 70° (ENE) 07:12:28 437.568
LilacSat-2 21 Sep 07:04:34 07:08:25 83° 102° (ESE) 07:12:14 437.200
NUDT-PHONESAT 21 Sep 07:10:25 07:14:09 63° 101° (ESE) 07:17:49 437.300
KAITUO 1B 21 Sep 07:34:12 07:37:54 59° 285° (WNW) 07:41:34 145.475/437.950
SEEDS 21 Sep 07:38:33 07:41:42 20° 94° (E) 07:44:50 437.485
DOVE 4 21 Sep 07:47:51 07:49:23 12° 296° (WNW) 07:50:54 437.250
CUTE-I 21 Sep 07:49:26 07:54:40 59° 288° (WNW) 07:59:54 437.470
RS-15 21 Sep 07:56:35 08:08:19 48° 316° (NW) 08:20:05 29.354- 29.394
XW-2D 21 Sep 07:57:07 08:00:10 23° 291° (WNW) 08:03:10 145.860 - 145.880
CUBEBUG 2 21 Sep 07:59:03 08:03:20 34° 97° (E) 08:07:38 437.445
CUTE 1.7 + AOD 2 21 Sep 08:00:04 08:04:17 61° 100° (E) 08:08:27 437.475
XW-2B 21 Sep 08:09:45 08:12:20 18° 293° (WNW) 08:14:55 145.730 - 145.750
AAUSAT CUBESAT 2 21 Sep 08:10:09 08:13:13 20° 94° (E) 08:16:16 437.432
XW-2A 21 Sep 08:10:35 08:13:39 30° 97° (E) 08:16:42 145.665 - 145.685
XW-2F 21 Sep 08:12:10 08:14:42 17° 293° (WNW) 08:17:13 145.980 - 146.000
UWE-3 21 Sep 08:12:20 08:16:20 28° 95° (E) 08:20:19 435.000/436.395/437.385
HO-68 21 Sep 08:15:53 08:23:06 75° 104° (ESE) 08:30:16 435.675
FO-29 21 Sep 08:29:19 08:34:25 33° 69° (ENE) 08:39:11 435.910
XW-2C 21 Sep 08:32:58 08:33:19 10° 296° (WNW) 08:33:40 145.795 - 145.815
STRAND 1 21 Sep 08:43:06 08:47:00 22° 266° (W) 08:50:54 437.568
AO-73 21 Sep 09:05:08 09:09:34 48° 99° (E) 09:13:58 145.935
ZACube-1 21 Sep 09:06:09 09:10:40 56° 100° (E) 09:15:10 437.345
Oscar 11 21 Sep 09:07:51 09:11:50 34° 97° (E) 09:15:47 .
SEEDS 21 Sep 09:13:42 09:17:25 31° 289° (WNW) 09:21:05 437.485
UNISAT 6 21 Sep 09:24:55 09:28:46 32° 70° (ENE) 09:32:41 437.425
CUBEBUG 2 21 Sep 09:35:58 09:39:44 25° 292° (WNW) 09:43:33 437.445
CUTE 1.7 + AOD 2 21 Sep 09:37:54 09:39:34 12° 297° (WNW) 09:41:14 437.475
PRISM 21 Sep 09:39:29 09:42:50 25° 68° (ENE) 09:46:11 437.425
XW-2A 21 Sep 09:44:09 09:46:06 15° 293° (WNW) 09:48:02 145.665 - 145.685
AAUSAT CUBESAT 2 21 Sep 09:45:04 09:48:42 30° 289° (WNW) 09:52:17 437.432
UWE-3 21 Sep 09:48:41 09:52:42 29° 291° (WNW) 09:56:44 435.000/436.395/437.385
TIGRISAT 21 Sep 09:49:01 09:53:12 54° 74° (ENE) 09:57:31 435.000
DELFI C3 21 Sep 10:04:26 10:07:58 31° 97° (E) 10:11:27 145.870
HO-68 21 Sep 10:04:51 10:10:05 22° 303° (WNW) 10:15:20 435.675
Max Valier Satellite 21 Sep 10:09:18 10:12:29 26° 96° (E) 10:15:39 145.860
FO-29 21 Sep 10:14:22 10:19:31 31° 263° (W) 10:24:18 435.910
RS-15 21 Sep 10:15:56 10:25:03 23° 348° (NNW) 10:34:02 29.354- 29.394
AO-73 21 Sep 10:42:25 10:45:23 17° 295° (WNW) 10:48:21 145.935
ZACube-1 21 Sep 10:43:49 10:46:28 15° 296° (WNW) 10:49:05 437.345
Oscar 11 21 Sep 10:44:30 10:47:44 21° 293° (WNW) 10:50:57 .
POLYITAN 1 21 Sep 10:49:21 10:51:11 13° 63° (ENE) 10:53:02 437.675
EO-79 21 Sep 10:54:01 10:56:14 14° 64° (ENE) 10:58:29 145.935-145.965
UNISAT 6 21 Sep 11:02:12 11:05:31 21° 266° (W) 11:08:54 437.425
QB50P2 21 Sep 11:05:33 11:08:42 21° 67° (ENE) 11:11:52 145.880/145.840
YUBILEINY 21 Sep 11:07:43 11:11:36 14° 75° (ENE) 11:15:28 435.215
PRISM 21 Sep 11:14:35 11:18:00 25° 264° (W) 11:21:26 437.425
EO-88 21 Sep 11:15:58 11:19:33 55° 285° (WNW) 11:23:07 145.990 - 145.960
AIST 2D 21 Sep 11:23:27 11:26:59 77° 77° (ENE) 11:30:33 435.315
TIGRISAT 21 Sep 11:28:19 11:30:15 13° 270° (W) 11:32:12 435.000
M-CUBED/EXP-1 PRIME 21 Sep 11:34:15 11:37:34 22° 64° (ENE) 11:40:43 437.505
DELFI C3 21 Sep 11:39:46 11:42:29 18° 293° (WNW) 11:45:11 145.870
NANOSAT C BR1 21 Sep 11:42:53 11:46:50 42° 72° (ENE) 11:50:49 145.865
Max Valier Satellite 21 Sep 11:43:22 11:46:08 20° 292° (WNW) 11:48:55 145.860
O/OREOS (USA 219) 21 Sep 11:51:11 11:54:05 16° 54° (NE) 11:56:58 437.305
DUCHIFAT 1 21 Sep 12:12:38 12:16:48 84° 76° (ENE) 12:21:01 145.980
LO-87 21 Sep 12:21:03 12:24:38 71° 283° (WNW) 12:28:13 145.935 - 145.965
POLYITAN 1 21 Sep 12:22:19 12:26:27 58° 259° (W) 12:30:38 437.675
ESTCUBE 1 21 Sep 12:26:23 12:30:53 72° 101° (ESE) 12:35:21 437.505/2401.250
EO-79 21 Sep 12:27:30 12:31:33 50° 260° (W) 12:35:40 145.935-145.965
RS-15 21 Sep 12:33:26 12:43:20 27° 24° (NNE) 12:52:52 29.354- 29.394
QB50P2 21 Sep 12:40:29 12:44:16 32° 263° (W) 12:48:05 145.880/145.840
Gurwin Techsat 1B 21 Sep 12:47:40 12:51:29 21° 63° (ENE) 12:55:18 435.225
YUBILEINY 21 Sep 12:58:09 13:06:50 78° 94° (E) 13:15:32 435.215
BUGSAT 1 21 Sep 12:58:48 13:02:47 72° 75° (ENE) 13:06:50 437.445
VELOX 1 21 Sep 13:07:20 13:11:22 34° 98° (E) 13:15:21 145.980
M-CUBED/EXP-1 PRIME 21 Sep 13:07:47 13:11:47 34° 257° (WSW) 13:15:35 437.505
AO-7 21 Sep 13:09:49 13:13:12 13° 45° (NE) 13:16:34 .
NANOSAT C BR1 21 Sep 13:20:17 13:22:44 15° 268° (W) 13:25:13 145.865
Oscar 19 21 Sep 13:22:17 13:27:23 61° 73° (ENE) 13:32:31 437.125/150
SPROUT 21 Sep 13:26:40 13:30:59 83° 104° (ESE) 13:35:16 437.525
O/OREOS (USA 219) 21 Sep 13:29:20 13:33:52 56° 252° (WSW) 13:38:21 437.305
SO-50 21 Sep 13:41:47 13:43:33 12° 108° (ESE) 13:45:19 436.795
NO-84 21 Sep 13:47:23 13:51:07 47° 133° (SE) 13:54:34 435.350 FM
ESTCUBE 1 21 Sep 14:05:30 14:07:04 12° 298° (WNW) 14:08:38 437.505/2401.250
50 SAT 21 Sep 14:17:33 14:20:52 81° 101° (ESE) 14:24:10 437.505
UKube-1 21 Sep 14:23:06 14:27:08 38° 99° (E) 14:31:08 .
ITAMSAT 1 21 Sep 14:23:51 14:26:57 16° 61° (ENE) 14:30:02 435.822/435.867
DX 1 21 Sep 14:24:24 14:28:42 64° 102° (ESE) 14:32:59 434.975-435.025
Gurwin Techsat 1B 21 Sep 14:25:50 14:31:00 53° 260° (W) 14:36:12 435.225
VELOX 1 21 Sep 14:44:16 14:47:34 21° 294° (WNW) 14:50:52 145.980
RS-15 21 Sep 14:46:33 14:58:35 70° 53° (NE) 15:09:55 29.354- 29.394
AO-7 21 Sep 14:56:07 15:04:12 57° 65° (ENE) 15:12:16 .
YUBILEINY 21 Sep 14:58:09 15:04:35 22° 295° (WNW) 15:11:03 435.215
Oscar 19 21 Sep 15:03:57 15:07:05 16° 269° (W) 15:10:13 437.125/150
MOZHAYETS 4 21 Sep 15:09:18 15:11:54 15° 91° (E) 15:14:30
ITUPSAT 1 21 Sep 15:13:58 15:17:03 17° 92° (E) 15:20:05 437.325
SO-50 21 Sep 15:18:55 15:23:24 69° 305° (NW) 15:27:54 436.795
PCSat 21 Sep 15:24:57 15:30:18 67° 116° (ESE) 15:35:42 145.827
NO-84 21 Sep 15:25:39 15:28:39 23° 328° (NNW) 15:31:27 435.350 FM
BEESAT 21 Sep 15:51:16 15:55:48 40° 99° (E) 16:00:18 436.000
UKube-1 21 Sep 15:59:51 16:02:52 19° 294° (WNW) 16:05:52 .
ITAMSAT 1 21 Sep 16:00:43 16:05:51 66° 258° (WSW) 16:11:00 435.822/435.867
DX 1 21 Sep 16:02:34 16:04:20 12° 298° (WNW) 16:06:05 434.975-435.025
MOZHAYETS 4 21 Sep 16:44:50 16:49:22 53° 287° (WNW) 16:53:51
AO-7 21 Sep 16:50:04 16:57:16 32° 263° (W) 17:04:29 .
ITUPSAT 1 21 Sep 16:50:27 16:55:08 51° 288° (WNW) 16:59:46 437.325
RS-15 21 Sep 17:00:04 17:10:03 34° 256° (WSW) 17:19:39 29.354- 29.394
SO-50 21 Sep 17:03:18 17:04:42 11° 324° (NW) 17:06:06 436.795
CUBESAT XI-V 21 Sep 17:04:27 17:08:59 51° 99° (E) 17:13:26 437.345
XW-2D 21 Sep 17:05:19 17:06:47 12° 65° (ENE) 17:08:16 145.860 - 145.880
PCSat 21 Sep 17:10:12 17:14:11 20° 314° (NW) 17:18:12 145.827
DOVE 4 21 Sep 17:12:51 17:17:17 59° 75° (ENE) 17:21:31 437.250
XW-2B 21 Sep 17:16:38 17:18:58 16° 66° (ENE) 17:21:17 145.730 - 145.750
XW-2F 21 Sep 17:18:39 17:20:58 16° 66° (ENE) 17:23:17 145.980 - 146.000
KKS-1 21 Sep 17:23:05 17:26:51 27° 96° (E) 17:30:36 437.445
BEESAT 21 Sep 17:29:39 17:33:17 22° 295° (WNW) 17:36:53 436.000
CUTE-I 21 Sep 17:31:57 17:36:23 28° 66° (ENE) 17:40:50 437.470
XW-2C 21 Sep 17:36:45 17:40:00 27° 70° (ENE) 17:43:17 145.795 - 145.815
LilacSat-2 21 Sep 17:45:43 17:49:17 36° 72° (ENE) 17:52:53 437.200
NUDT-PHONESAT 21 Sep 17:49:09 17:52:18 26° 70° (ENE) 17:55:28 437.300
STARS 21 Sep 17:54:31 17:58:04 23° 95° (E) 18:01:36 437.465
KAITUO 1B 21 Sep 18:13:06 18:16:48 55° 74° (ENE) 18:20:32 145.475/437.950
SEEDS 21 Sep 18:30:32 18:32:53 15° 65° (ENE) 18:35:16 437.485
XW-2D 21 Sep 18:36:46 18:40:29 50° 260° (W) 18:44:16 145.860 - 145.880
CUBESAT XI-V 21 Sep 18:43:01 18:45:54 17° 296° (WNW) 18:48:48 437.345
XW-2A 21 Sep 18:43:37 18:44:12 10° 65° (ENE) 18:44:48 145.665 - 145.685
HO-68 21 Sep 18:43:45 18:50:37 53° 68° (ENE) 18:57:31 435.675
XW-2B 21 Sep 18:49:15 18:52:48 37° 262° (W) 18:56:25 145.730 - 145.750
XW-2F 21 Sep 18:51:13 18:54:45 36° 262° (W) 18:58:20 145.980 - 146.000
CUTE 1.7 + AOD 2 21 Sep 18:51:58 18:55:58 40° 72° (ENE) 18:59:59 437.475
DOVE 4 21 Sep 18:53:37 18:55:16 12° 269° (W) 18:56:55 437.250
CUBEBUG 2 21 Sep 18:57:09 19:00:36 25° 68° (ENE) 19:04:08 437.445
KKS-1 21 Sep 18:59:33 19:03:19 28° 292° (WNW) 19:07:05 437.445
AAUSAT CUBESAT 2 21 Sep 19:00:43 19:02:51 14° 65° (ENE) 19:05:00 437.432
UWE-3 21 Sep 19:09:26 19:12:34 20° 66° (ENE) 19:15:46 435.000/436.395/437.385
XW-2C 21 Sep 19:11:16 19:14:09 20° 266° (W) 19:17:05 145.795 - 145.815
CUTE-I 21 Sep 19:11:23 19:16:15 37° 262° (W) 19:21:10 437.470
STRAND 1 21 Sep 19:15:00 19:17:52 15° 91° (E) 19:20:44 437.568
LilacSat-2 21 Sep 19:21:24 19:23:41 15° 268° (W) 19:25:59 437.200
NUDT-PHONESAT 21 Sep 19:23:21 19:26:08 20° 266° (W) 19:28:56 437.300
STARS 21 Sep 19:30:31 19:34:23 31° 291° (WNW) 19:38:15 437.465
AO-73 21 Sep 20:00:04 20:03:57 34° 70° (ENE) 20:07:56 145.935
ZACube-1 21 Sep 20:01:20 20:05:20 39° 71° (ENE) 20:09:27 437.345
Oscar 11 21 Sep 20:02:16 20:05:53 26° 69° (ENE) 20:09:29 .
SEEDS 21 Sep 20:04:02 20:08:09 49° 261° (W) 20:12:17 437.485
BEESAT 3 21 Sep 20:07:12 20:10:56 39° 116° (ESE) 20:14:43 437.485
BEESAT 2 21 Sep 20:11:14 20:13:02 13° 109° (ESE) 20:14:52 435.950
XW-2A 21 Sep 20:13:14 20:16:29 44° 261° (W) 20:19:47 145.665 - 145.685
NO-84 21 Sep 20:21:47 20:24:17 23° 32° (NNE) 20:26:41 435.350 FM
CUTE 1.7 + AOD 2 21 Sep 20:29:07 20:31:56 17° 268° (W) 20:34:46 437.475
HO-68 21 Sep 20:32:34 20:38:35 29° 265° (W) 20:44:40 435.675
CUBEBUG 2 21 Sep 20:33:32 20:37:06 27° 265° (W) 20:40:48 437.445
AAUSAT CUBESAT 2 21 Sep 20:33:49 20:37:52 50° 261° (W) 20:41:56 437.432
Tancredo 1 21 Sep 20:44:07 20:46:47 71° 323° (NW) 20:49:29 437.200
UWE-3 21 Sep 20:44:51 20:48:45 35° 263° (W) 20:52:47 435.000/436.395/437.385
AO-85 21 Sep 20:45:42 20:49:11 32° 115° (ESE) 20:52:42 145.980
Max Valier Satellite 21 Sep 20:49:17 20:50:44 12° 65° (ENE) 20:52:11 145.860
DELFI C3 21 Sep 20:49:52 20:52:35 18° 67° (ENE) 20:55:18 145.870
STRAND 1 21 Sep 20:52:23 20:57:28 64° 287° (WNW) 21:02:33 437.568
nSIGHT-1 21 Sep 20:54:19 20:56:46 20° 133° (SE) 20:59:14 .
FO-29 21 Sep 21:22:03 21:26:49 30° 97° (E) 21:32:00 435.910
AO-73 21 Sep 21:37:01 21:40:15 21° 267° (W) 21:43:33 145.935
Oscar 11 21 Sep 21:38:12 21:41:54 27° 265° (W) 21:45:39 .
ZACube-1 21 Sep 21:38:51 21:41:46 18° 268° (W) 21:44:45 437.345
TIGRISAT 21 Sep 21:42:21 21:44:27 13° 90° (E) 21:46:34 435.000
BEESAT 3 21 Sep 21:45:33 21:48:38 21° 314° (NW) 21:51:44 437.485
ISS 21 Sep 21:45:53 21:49:07 64° 140° (SE) 21:52:23 437.550
BEESAT 2 21 Sep 21:46:21 21:50:17 55° 305° (NW) 21:54:17 435.950
EO-88 21 Sep 21:52:39 21:56:13 53° 75° (ENE) 21:59:49 145.990 - 145.960
NO-84 21 Sep 21:59:07 22:01:36 26° 230° (SW) 22:04:01 435.350 FM
SO-50 21 Sep 22:11:21 22:13:50 14° 40° (NE) 22:16:20 436.795
Tancredo 1 21 Sep 22:20:20 22:21:45 13° 343° (NNW) 22:23:10 437.200
Max Valier Satellite 21 Sep 22:20:34 22:24:08 46° 261° (W) 22:27:44 145.860
DELFI C3 21 Sep 22:23:30 22:27:05 33° 263° (W) 22:30:41 145.870
AO-85 21 Sep 22:26:33 22:29:37 22° 313° (NW) 22:32:43 145.980
nSIGHT-1 21 Sep 22:29:48 22:32:54 43° 329° (NNW) 22:36:01 .
UNISAT 6 21 Sep 22:52:28 22:57:09 79° 102° (ESE) 23:01:52 437.425
PRISM 21 Sep 22:55:20 22:59:11 40° 99° (E) 23:03:00 437.425
LO-87 21 Sep 22:56:25 22:59:42 38° 73° (ENE) 23:03:00 145.935 - 145.965
FO-29 21 Sep 23:07:02 23:11:56 36° 291° (WNW) 23:17:17 435.910
YUBILEINY 21 Sep 23:09:04 23:17:02 38° 72° (ENE) 23:24:58 435.215
TIGRISAT 21 Sep 23:16:52 23:21:30 63° 285° (WNW) 23:26:08 435.000
ISS 21 Sep 23:23:13 23:25:51 22° 338° (NNW) 23:28:29 437.550
ESTCUBE 1 21 Sep 23:25:03 23:29:31 62° 74° (ENE) 23:34:00 437.505/2401.250
SO-50 21 Sep 23:50:19 23:54:55 89° 252° (WSW) 23:59:34 436.795
DUCHIFAT 1 21 Sep 23:58:24 00:00:34 14° 91° (E) 00:02:43 145.980
VELOX 1 22 Sep 00:04:07 00:07:56 30° 69° (ENE) 00:11:46 145.980
POLYITAN 1 22 Sep 00:07:50 00:11:15 23° 95° (E) 00:14:39 437.675
nSIGHT-1 22 Sep 00:08:04 00:09:53 14° 348° (NNW) 00:11:42 .
EO-79 22 Sep 00:12:37 00:16:11 25° 95° (E) 00:19:46 145.935-145.965
PCSat 22 Sep 00:13:14 00:18:29 49° 56° (NE) 00:23:43 145.827
SPROUT 22 Sep 00:19:09 00:23:18 57° 74° (ENE) 00:27:27 437.525
AIST 2D 22 Sep 00:21:42 00:25:14 80° 285° (WNW) 00:28:45 435.315
QB50P2 22 Sep 00:25:06 00:29:08 39° 98° (E) 00:33:09 145.880/145.840
PRISM 22 Sep 00:31:37 00:34:07 16° 295° (WNW) 00:36:36 437.425
UNISAT 6 22 Sep 00:31:37 00:33:12 12° 298° (WNW) 00:34:47 437.425
LO-87 22 Sep 00:32:01 00:33:18 12° 268° (W) 00:34:35 145.935 - 145.965
BUGSAT 1 22 Sep 00:43:09 00:44:12 11° 90° (E) 00:45:14 437.445
50 SAT 22 Sep 00:47:13 00:49:54 23° 70° (ENE) 00:52:34 437.505
M-CUBED/EXP-1 PRIME 22 Sep 00:48:43 00:49:22 10° 97° (E) 00:50:01 437.505
ISS 22 Sep 01:01:53 01:03:16 12° 358° (N) 01:04:39 437.550
NANOSAT C BR1 22 Sep 01:02:35 01:06:52 86° 104° (ESE) 01:11:08 145.865
ESTCUBE 1 22 Sep 01:04:50 01:06:41 12° 270° (W) 01:08:34 437.505/2401.250
YUBILEINY 22 Sep 01:05:45 01:13:56 47° 272° (W) 01:22:09 435.215
UKube-1 22 Sep 01:17:04 01:20:51 31° 69° (ENE) 01:24:40 .
DX 1 22 Sep 01:19:11 01:23:23 51° 72° (ENE) 01:27:37 434.975-435.025
Tancredo 1 22 Sep 01:30:46 01:32:40 17° 22° (NNE) 01:34:35 437.200
DUCHIFAT 1 22 Sep 01:32:22 01:36:29 49° 287° (WNW) 01:40:35 145.980
Oscar 19 22 Sep 01:35:01 01:38:57 22° 94° (E) 01:42:50 437.125/150
VELOX 1 22 Sep 01:40:47 01:44:21 24° 265° (W) 01:47:56 145.980
POLYITAN 1 22 Sep 01:43:15 01:47:01 30° 290° (WNW) 01:50:45 437.675
nSIGHT-1 22 Sep 01:45:41 01:47:17 13° 9° (N) 01:48:53 .
EO-79 22 Sep 01:48:17 01:51:52 27° 291° (WNW) 01:55:27 145.935-145.965
PCSat 22 Sep 01:57:21 02:01:32 23° 253° (WSW) 02:05:41 145.827
SPROUT 22 Sep 01:58:03 01:59:32 12° 270° (W) 02:01:01 437.525
QB50P2 22 Sep 02:01:41 02:04:37 18° 294° (WNW) 02:07:33 145.880/145.840
O/OREOS (USA 219) 22 Sep 02:03:35 02:06:30 17° 100° (E) 02:09:25 437.305
MOZHAYETS 4 22 Sep 02:11:11 02:13:43 15° 63° (ENE) 02:16:15
BUGSAT 1 22 Sep 02:15:44 02:19:53 61° 286° (WNW) 02:24:03 437.445
50 SAT 22 Sep 02:20:08 02:22:21 17° 265° (W) 02:24:35 437.505
ITUPSAT 1 22 Sep 02:20:21 02:23:45 20° 64° (ENE) 02:27:10 437.325
M-CUBED/EXP-1 PRIME 22 Sep 02:20:56 02:24:02 36° 293° (WNW) 02:27:03 437.505
